Theta_e
352 355 362 364 365 365 365 364 363 362 363 363 362 362 362 361 361 361 360 358 356 352 350 350 351 352 352 352 350 347 348 349
351 360 361 364 364 365 366 365 363 363 363 363 363 362 362 361 360 360 359 357 355 352 350 348 348 348 350 349 347 347 346 347
352 361 360 362 364 364 364 364 363 362 362 363 363 362 361 360 359 358 357 356 355 352 350 348 347 346 347 346 345 345 344 344
352 360 358 356 361 363 362 362 362 361 362 362 361 361 360 360 358 357 357 355 354 352 351 350 348 346 345 344 344 344 346 345
348 356 356 356 355 359 360 362 361 361 361 361 361 360 359 359 357 357 356 355 354 352 351 349 348 347 346 345 345 346 346 344
345 353 353 349 352 352 354 359 361 361 361 361 360 360 356 354 354 353 352 354 354 352 351 350 349 348 347 347 347 347 346 336
341 346 353 350 350 349 347 356 357 358 358 358 358 358 355 352 353 348 349 354 354 353 352 351 350 349 347 337 337 347 339 335
342 344 351 356 355 350 348 355 351 350 353 355 356 357 355 351 352 347 348 345 348 351 344 347 345 342 337 336 336 339 338 338
339 339 351 357 358 356 352 353 354 348 348 348 349 354 353 351 350 346 346 342 343 343 338 340 337 338 338 339 342 343 344 343
332 348 348 354 360 357 362 363 355 349 348 347 349 349 350 351 352 349 344 345 344 340 339 338 340 339 342 342 341 346 345 344
338 349 350 350 346 358 358 365 368 356 352 349 349 348 351 354 350 349 350 346 344 339 341 339 343 343 341 340 342 349 348 349
333 353 346 349 332 335 361 363 363 363 355 353 349 351 351 352 354 351 347 350 347 350 349 346 346 347 345 344 343 347 350 350
336 342 352 346 349 356 362 361 360 358 360 353 357 355 353 351 353 355 349 345 347 351 348 345 342 341 339 339 342 346 347 350
336 339 340 345 343 358 362 362 362 362 360 359 355 355 357 354 352 354 348 346 348 346 345 343 344 339 337 338 342 346 347 349
331 334 337 339 343 350 352 362 360 359 359 361 358 354 358 356 354 352 351 349 348 344 342 343 341 342 340 339 337 337 343 348
332 335 339 341 346 346 345 347 355 351 354 356 357 361 355 355 356 354 353 351 355 346 343 343 341 344 341 344 340 338 340 344
329 333 340 344 346 347 347 346 343 350 352 352 356 357 355 357 356 357 355 351 352 351 349 348 345 340 344 341 334 336 330 335
331 334 336 342 345 345 346 342 342 352 353 346 351 356 357 356 356 356 356 353 351 350 345 347 348 343 337 340 341 336 330 326
326 332 333 338 341 337 343 340 342 339 336 343 345 349 352 355 354 356 355 355 351 351 345 347 347 345 340 334 341 340 343 338
Wind_Speed
17 16 17 14 15 15 16 14 14 14 12 13 12 12 11 11 10 9 9 7 6 7 7 7 6 5 5 4 3 1 2 7
17 18 16 14 13 15 14 15 15 16 15 13 14 13 12 10 9 8 8 7 7 5 5 5 5 4 2 2 1 1 3 7
17 16 15 16 14 14 15 15 15 15 16 17 15 14 13 12 10 8 7 6 6 7 6 6 5 3 2 1 1 3 4 6
16 15 13 13 12 13 13 14 14 14 15 15 16 15 14 12 11 9 8 6 6 5 5 5 4 4 3 3 3 4 5 7
12 18 14 11 12 11 11 13 14 14 13 14 14 14 15 13 12 11 9 8 8 7 6 5 4 4 4 5 6 7 8 9
13 15 15 14 12 11 11 11 12 14 15 14 14 14 12 8 9 12 12 15 12 11 9 8 6 5 5 8 11 11 10 4
15 16 16 15 15 13 11 13 11 11 9 10 10 11 8 8 10 11 12 15 14 12 11 10 9 7 7 6 6 12 5 9
13 11 19 15 13 13 10 9 7 7 7 8 12 11 10 7 6 7 6 7 6 11 6 8 7 6 8 8 6 6 8 9
10 12 10 16 13 11 7 10 9 8 8 7 8 9 8 6 7 7 7 9 8 7 7 7 6 8 9 8 5 4 5 4
7 4 11 11 10 7 6 3 8 8 8 8 9 9 8 8 6 5 6 8 10 8 8 6 7 8 6 4 5 6 6 5
5 9 9 9 14 6 7 5 1 7 7 9 9 10 13 7 8 7 5 5 6 7 9 8 6 5 4 3 6 6 3 3
5 3 11 12 11 10 10 5 4 4 5 5 8 10 14 10 6 6 6 4 5 5 6 7 5 5 4 4 5 3 4 6
5 6 1 12 21 26 11 8 6 6 5 8 5 6 13 13 10 6 5 7 5 4 4 3 4 4 5 5 5 6 6 7
7 8 7 8 7 5 10 9 9 9 7 6 7 6 10 14 12 6 6 5 6 4 5 5 3 4 4 6 6 5 5 4
8 7 6 5 7 4 3 9 8 8 8 8 9 9 9 12 15 11 8 7 8 7 7 8 9 8 5 5 4 3 5 4
8 6 5 6 5 4 3 4 7 8 7 8 8 9 10 11 15 15 10 11 7 9 11 8 7 4 3 3 2 2 2 4
6 5 3 3 5 4 3 4 5 4 8 10 10 12 11 9 14 12 14 12 12 9 10 9 10 6 4 6 4 3 3 3
5 4 2 2 2 4 6 5 5 6 4 7 6 9 11 14 15 16 16 13 13 13 10 11 10 12 9 5 7 6 4 5
3 2 5 5 6 5 5 5 7 6 7 8 9 8 10 16 20 20 18 17 16 13 15 12 11 10 8 9 7 10 6 3
Wind_Direction
141 148 140 141 141 142 144 147 151 150 150 146 144 141 142 143 140 137 141 143 149 147 148 141 134 141 147 136 121 66 333 311
142 128 144 138 142 144 148 151 154 155 151 151 149 146 146 144 143 143 146 150 150 150 143 139 139 142 141 134 154 265 305 312
126 136 145 143 148 151 152 156 158 160 156 153 153 149 147 148 151 152 156 159 156 157 158 157 155 160 155 178 252 283 294 298
133 132 146 160 157 154 155 155 160 160 159 156 153 149 148 152 155 156 159 159 156 158 160 166 168 177 192 214 248 269 279 291
146 135 145 165 171 172 167 163 160 160 159 154 153 153 152 155 161 163 158 171 169 169 173 175 184 209 237 248 244 243 253 266
157 141 149 172 175 186 175 173 163 167 161 160 158 158 152 173 175 174 188 173 175 175 181 183 196 214 236 254 247 239 241 249
165 163 155 169 171 186 190 161 179 182 185 182 182 174 188 202 175 189 183 168 174 181 184 190 194 207 228 246 236 223 222 237
193 179 160 161 162 184 213 154 173 185 190 193 195 182 192 197 212 191 152 166 179 185 189 194 197 213 214 231 249 183 216 237
202 175 193 149 156 178 196 161 172 187 181 190 202 199 186 207 198 179 161 178 184 180 203 184 202 203 218 231 250 275 281 309
299 99 122 125 161 159 216 195 170 184 182 191 182 200 204 194 200 196 189 192 180 176 190 210 206 199 205 224 242 236 226 229
315 101 97 76 45 334 228 215 273 180 195 183 185 190 187 205 207 182 193 212 182 194 181 193 192 205 183 218 242 222 241 246
269 117 143 144 153 204 218 233 219 236 198 211 203 182 187 201 203 196 187 209 217 189 194 174 198 167 169 223 240 251 224 223
6 9 328 177 184 197 180 180 232 234 222 225 217 187 183 192 197 188 185 206 207 213 190 187 166 171 182 220 227 210 204 215
34 20 18 20 4 192 177 186 194 215 229 244 217 218 185 188 198 193 212 205 203 205 199 177 179 168 218 226 213 195 221 225
77 34 8 345 324 338 261 197 205 206 214 218 229 218 193 183 191 196 199 229 200 208 212 186 200 191 192 197 226 205 219 221
105 77 22 355 331 309 307 263 202 214 223 220 227 226 213 195 188 188 202 202 225 214 208 206 209 206 192 170 154 288 271 226
118 153 104 43 11 344 296 275 283 253 214 218 209 216 219 177 189 198 197 207 211 222 203 210 199 193 186 179 167 132 237 285
59 31 340 48 56 10 321 308 300 281 262 271 262 209 205 200 188 195 203 205 211 218 210 203 196 187 192 190 182 159 205 205
45 345 11 33 27 328 357 328 316 297 292 285 255 259 208 210 199 188 202 198 209 209 215 201 206 202 191 193 197 215 240 183